• In Belgium
  • List of Countries
  • For 7 days
  • Water Temperature
  • Satellite Maps
  • Weather Map
  • Weather Widgets
  • user-avatar
    Login

    Hourly Weather Ovsyannikovskaya

    Today, 22 September, Saturday

    Time Temperature Precipitation Wind Pressure Humidity
    00:00 +13°C° 0 mm 1 mps 751 mmHg 97%
    01:00 +13°C° 0 mm 1 mps 751 mmHg 97%
    02:00 +13°C° 0 mm 1 mps 751 mmHg 97%
    03:00 +12°C° 0 mm 1 mps 751 mmHg 97%
    04:00 +12°C° 0 mm 1 mps 751 mmHg 97%
    05:00 +12°C° 0 mm 2 mps 751 mmHg 97%
    06:00 +12°C° 0 mm 2 mps 751 mmHg 97%
    07:00 +14°C° 0 mm 2 mps 751 mmHg 94%
    08:00 +15°C° 0 mm 2 mps 751 mmHg 91%
    09:00 +17°C° 0 mm 2 mps 750 mmHg 88%
    10:00 +18°C° 0 mm 3 mps 750 mmHg 83%
    11:00 +20°C° 0 mm 3 mps 750 mmHg 78%
    12:00 +22°C° 0 mm 3 mps 749 mmHg 73%
    13:00 +22°C° 0 mm 4 mps 749 mmHg 70%
    14:00 +23°C° 0 mm 4 mps 749 mmHg 67%
    15:00 +23°C° 0 mm 4 mps 748 mmHg 64%
    16:00 +22°C° 0 mm 4 mps 748 mmHg 69%
    17:00 +20°C° 0 mm 4 mps 748 mmHg 74%
    18:00 +19°C° 0 mm 3 mps 747 mmHg 79%
    19:00 +18°C° 0 mm 3 mps 747 mmHg 82%
    20:00 +18°C° 0 mm 3 mps 747 mmHg 85%
    21:00 +17°C° 0 mm 3 mps 747 mmHg 88%
    22:00 +17°C° 0 mm 3 mps 746 mmHg 89%
    23:00 +17°C° 0 mm 3 mps 746 mmHg 90%

    Tomorrow, 23 September, Sunday

    Time Temperature Precipitation Wind Pressure Humidity
    00:00 +17°C° 0 mm 3 mps 746 mmHg 91%
    01:00 +17°C° 0 mm 3 mps 746 mmHg 92%
    02:00 +16°C° 0 mm 3 mps 746 mmHg 93%
    03:00 +16°C° 0 mm 3 mps 746 mmHg 93%
    04:00 +16°C° 0 mm 3 mps 745 mmHg 94%
    05:00 +14°C° 0 mm 3 mps 745 mmHg 95%
    06:00 +14°C° 0 mm 3 mps 745 mmHg 96%
    07:00 +16°C° 0.1 mm 3 mps 745 mmHg 92%
    08:00 +15°C° 0.1 mm 4 mps 744 mmHg 89%
    09:00 +17°C° 0.1 mm 4 mps 744 mmHg 86%
    10:00 +17°C° 0.1 mm 4 mps 744 mmHg 84%
    11:00 +18°C° 0.1 mm 4 mps 744 mmHg 83%
    12:00 +18°C° 0.1 mm 3 mps 743 mmHg 82%
    13:00 +18°C° 0.3 mm 3 mps 743 mmHg 81%
    14:00 +18°C° 0.3 mm 3 mps 742 mmHg 80%
    15:00 +18°C° 0.3 mm 3 mps 742 mmHg 79%
    16:00 +15°C° 1.4 mm 4 mps 741 mmHg 82%
    17:00 +14°C° 1.4 mm 4 mps 741 mmHg 85%
    18:00 +12°C° 1.4 mm 5 mps 741 mmHg 88%
    19:00 +11°C° 1.5 mm 4 mps 741 mmHg 90%
    20:00 +9°C° 1.5 mm 3 mps 741 mmHg 91%
    21:00 +8°C° 1.5 mm 2 mps 742 mmHg 93%
    22:00 +8°C° 0 mm 2 mps 742 mmHg 93%
    23:00 +8°C° 0 mm 2 mps 743 mmHg 93%

    Day after tomorrow, 24 September, Monday

    Time Temperature Precipitation Wind Pressure Humidity
    00:00 +8°C° 0 mm 2 mps 743 mmHg 94%
    01:00 +9°C° 0 mm 2 mps 743 mmHg 93%
    02:00 +9°C° 0 mm 2 mps 743 mmHg 93%
    03:00 +9°C° 0 mm 2 mps 744 mmHg 93%
    04:00 +9°C° 0 mm 2 mps 744 mmHg 93%
    05:00 +9°C° 0 mm 2 mps 744 mmHg 93%
    06:00 +9°C° 0 mm 2 mps 744 mmHg 93%
    07:00 +9°C° 0 mm 2 mps 744 mmHg 91%
    08:00 +9°C° 0 mm 3 mps 744 mmHg 88%
    09:00 +10°C° 0 mm 3 mps 744 mmHg 86%
    10:00 +11°C° 0.1 mm 3 mps 744 mmHg 81%
    11:00 +12°C° 0.1 mm 3 mps 744 mmHg 76%
    12:00 +12°C° 0.1 mm 3 mps 744 mmHg 72%
    13:00 +12°C° 0.3 mm 3 mps 744 mmHg 73%
    14:00 +12°C° 0.3 mm 3 mps 744 mmHg 75%
    15:00 +11°C° 0.3 mm 3 mps 744 mmHg 77%
    16:00 +11°C° 0.1 mm 3 mps 745 mmHg 80%
    17:00 +10°C° 0.1 mm 2 mps 745 mmHg 84%
    18:00 +10°C° 0.1 mm 1 mps 745 mmHg 87%
    19:00 +9°C° 0 mm 1 mps 745 mmHg 90%
    20:00 +9°C° 0 mm 1 mps 745 mmHg 92%
    21:00 +8°C° 0 mm 1 mps 745 mmHg 94%
    22:00 +8°C° 0 mm 1 mps 745 mmHg 95%
    23:00 +8°C° 0 mm 1 mps 745 mmHg 96%

    25 September, Tuesday

    Time Temperature Precipitation Wind Pressure Humidity
    00:00 +7°C° 0 mm 1 mps 745 mmHg 97%
    01:00 +7°C° 0 mm 1 mps 744 mmHg 97%
    02:00 +7°C° 0 mm 1 mps 744 mmHg 96%
    03:00 +7°C° 0 mm 2 mps 744 mmHg 96%
    04:00 +7°C° 0.3 mm 2 mps 743 mmHg 96%
    05:00 +7°C° 0.3 mm 2 mps 742 mmHg 95%
    06:00 +8°C° 0.3 mm 3 mps 742 mmHg 94%
    07:00 +8°C° 0.4 mm 3 mps 741 mmHg 93%
    08:00 +7°C° 0.4 mm 4 mps 740 mmHg 91%
    09:00 +8°C° 0.4 mm 4 mps 740 mmHg 89%
    10:00 +8°C° 1 mm 4 mps 739 mmHg 89%
    11:00 +8°C° 1 mm 5 mps 738 mmHg 89%
    12:00 +8°C° 1 mm 5 mps 738 mmHg 88%
    13:00 +7°C° 1.7 mm 5 mps 737 mmHg 89%
    14:00 +7°C° 1.7 mm 5 mps 736 mmHg 90%
    15:00 +7°C° 1.7 mm 5 mps 736 mmHg 90%
    16:00 +6°C° 0.9 mm 4 mps 735 mmHg 91%
    17:00 +6°C° 0.9 mm 4 mps 735 mmHg 92%
    18:00 +7°C° 0.9 mm 3 mps 734 mmHg 93%
    19:00 +7°C° 0.3 mm 3 mps 734 mmHg 94%
    20:00 +7°C° 0.3 mm 2 mps 734 mmHg 95%
    21:00 +7°C° 0.3 mm 2 mps 733 mmHg 96%
    22:00 +7°C° 0.2 mm 2 mps 733 mmHg 96%
    23:00 +7°C° 0.2 mm 2 mps 733 mmHg 97%

    26 September, Wednesday

    Time Temperature Precipitation Wind Pressure Humidity
    00:00 +7°C° 0.2 mm 2 mps 733 mmHg 97%
    01:00 +7°C° 0.4 mm 2 mps 733 mmHg 97%
    02:00 +7°C° 0.4 mm 2 mps 733 mmHg 97%
    03:00 +7°C° 0.4 mm 2 mps 733 mmHg 97%
    04:00 +7°C° 0.3 mm 2 mps 733 mmHg 97%
    05:00 +7°C° 0.3 mm 2 mps 733 mmHg 96%
    06:00 +7°C° 0.3 mm 3 mps 734 mmHg 96%
    07:00 +7°C° 0.1 mm 3 mps 734 mmHg 94%
    08:00 +7°C° 0.1 mm 3 mps 735 mmHg 93%
    09:00 +6°C° 0.1 mm 4 mps 736 mmHg 92%
    10:00 +6°C° 0.2 mm 4 mps 737 mmHg 91%
    11:00 +6°C° 0.2 mm 4 mps 738 mmHg 90%
    12:00 +6°C° 0.2 mm 5 mps 739 mmHg 89%
    13:00 +6°C° 0.3 mm 5 mps 740 mmHg 89%
    14:00 +6°C° 0.3 mm 5 mps 741 mmHg 88%
    15:00 +6°C° 0.3 mm 5 mps 742 mmHg 88%
    16:00 +5°C° 0.1 mm 5 mps 743 mmHg 87%
    17:00 +5°C° 0.1 mm 5 mps 744 mmHg 87%
    18:00 +4°C° 0.1 mm 4 mps 745 mmHg 87%
    19:00 +4°C° 0 mm 4 mps 746 mmHg 88%
    20:00 +3°C° 0 mm 3 mps 747 mmHg 88%
    21:00 +3°C° 0 mm 3 mps 748 mmHg 89%
    22:00 +3°C° 0 mm 3 mps 748 mmHg 89%
    23:00 +4°C° 0 mm 2 mps 749 mmHg 89%

    27 September, Thursday

    Time Temperature Precipitation Wind Pressure Humidity
    00:00 +3°C° 0 mm 2 mps 750 mmHg 89%
    01:00 +3°C° 0 mm 2 mps 750 mmHg 90%
    02:00 +2°C° 0 mm 2 mps 750 mmHg 92%
    03:00 +1°C° 0 mm 2 mps 750 mmHg 94%
    04:00 +1°C° 0 mm 2 mps 750 mmHg 94%
    05:00 -1°C° 0 mm 2 mps 750 mmHg 93%
    06:00 -1°C° 0 mm 2 mps 750 mmHg 93%
    07:00 0°C° 0 mm 3 mps 750 mmHg 87%
    08:00 +2°C° 0 mm 3 mps 749 mmHg 82%
    09:00 +3°C° 0 mm 4 mps 749 mmHg 76%
    10:00 +3°C° 0 mm 5 mps 748 mmHg 71%
    11:00 +5°C° 0 mm 5 mps 748 mmHg 66%
    12:00 +5°C° 0 mm 6 mps 747 mmHg 62%
    13:00 +5°C° 0 mm 6 mps 746 mmHg 60%
    14:00 +5°C° 0 mm 6 mps 745 mmHg 58%
    15:00 +5°C° 0 mm 7 mps 744 mmHg 57%
    16:00 +5°C° 0.3 mm 7 mps 743 mmHg 63%
    17:00 +4°C° 0.3 mm 7 mps 742 mmHg 68%
    18:00 +4°C° 0.3 mm 7 mps 741 mmHg 74%
    19:00 +4°C° 0.7 mm 7 mps 739 mmHg 78%
    20:00 +4°C° 0.7 mm 7 mps 738 mmHg 82%
    21:00 +4°C° 0.7 mm 7 mps 737 mmHg 86%
    22:00 +4°C° 0.7 mm 7 mps 737 mmHg 87%
    23:00 +5°C° 0.7 mm 7 mps 736 mmHg 88%
    Show more